Weather History for KIZG - July, 2013

Change the Weather History Date:

Saturday, July 27, 2013

  Actual Average (WUND) Record (WUND)
Temperature  
Mean Temperature 72 °F -  
Max Temperature 86 °F - - (-1)
Min Temperature 59 °F - - (-1)
Cooling Degree Days 6    
Growing Degree Days 22 (Base 50)    
Moisture  
Dew Point 60 °F    
Average Humidity 69    
Maximum Humidity 93    
Minimum Humidity 39    
Precipitation  
Precipitation 0.00 in - - ()
Sea Level Pressure  
Sea Level Pressure 30.00 in    
Wind  
Wind Speed 2 mph (SSW)    
Max Wind Speed 7 mph    
Max Gust Speed -    
Visibility 10 miles    
Events      
Averages and records for this station are not official NWS values.
T = Trace of Precipitation, MM = Missing Value Source: NWS Daily Summary

Daily Weather History Graph

Daily Weather History Graph

Search for Another Location

Airport or City:

Trip Planner

Search our weather history database for the weather conditions in past years. The results will help you decide how hot, cold, wet, or windy it might be!

Date:

Astronomy

Jul. 27, 2013 Rise Set
Actual Time 5:26 AM EDT 8:13 PM EDT
Civil Twilight 4:53 AM EDT 8:46 PM EDT
Nautical Twilight 4:10 AM EDT 9:28 PM EDT
Astronomical Twilight 3:21 AM EDT 10:17 PM EDT
Moon 10:43 PM EDT (7/27) 11:18 AM EDT (7/27)
Length of Visible Light 15h 53m
Length of Day
14h 46m
Waning Gibbous, 71% of the Moon is Illuminated
Jul 27
Waning Gibbous
Jul 29
Last Quarter
Aug 6
New
Aug 14
First Quarter
Aug 20
Full

Hourly Weather History & Observations

Time (EDT) Temp. Heat Index Dew Point Humidity Pressure Visibility Wind Dir Wind Speed Gust Speed Precip Events Conditions
12:54 AM 64.0 °F - 61.0 °F 90% 29.97 in 10.0 mi WSW 4.6 mph - N/A   Clear
1:54 AM 64.9 °F - 60.1 °F 84% 29.95 in 10.0 mi Calm Calm - N/A   Partly Cloudy
2:54 AM 64.9 °F - 60.1 °F 84% 29.95 in 10.0 mi West 4.6 mph - N/A   Clear
3:54 AM 62.1 °F - 59.0 °F 90% 29.95 in 10.0 mi Calm Calm - N/A   Clear
4:54 AM 63.0 °F - 59.0 °F 87% 29.96 in 10.0 mi WSW 4.6 mph - N/A   Clear
5:54 AM 59.0 °F - 57.0 °F 93% 29.99 in 10.0 mi Calm Calm - N/A   Clear
6:54 AM 66.0 °F - 60.1 °F 81% 30.00 in 10.0 mi Calm Calm - N/A   Clear
7:54 AM 71.1 °F - 61.0 °F 70% 30.01 in 10.0 mi Calm Calm - N/A   Clear
8:54 AM 73.0 °F - 60.1 °F 64% 30.02 in 10.0 mi Calm Calm - N/A   Clear
9:54 AM 77.0 °F - 61.0 °F 58% 30.02 in 10.0 mi Calm Calm - N/A   Clear
10:54 AM 80.1 °F 80.9 °F 60.1 °F 50% 30.02 in 10.0 mi Calm Calm - N/A   Clear
11:54 AM 82.0 °F 83.0 °F 62.1 °F 51% 30.02 in 10.0 mi Variable 3.5 mph - N/A   Clear
12:54 PM 84.0 °F 84.5 °F 62.1 °F 47% 30.01 in 10.0 mi Variable 6.9 mph - N/A   Clear
1:54 PM 82.0 °F 82.7 °F 61.0 °F 49% 30.00 in 10.0 mi SSE 5.8 mph - N/A   Scattered Clouds
2:54 PM 84.9 °F 84.4 °F 59.0 °F 41% 30.00 in 10.0 mi Variable 4.6 mph - N/A   Scattered Clouds
3:54 PM 84.0 °F 84.0 °F 60.1 °F 44% 29.99 in 10.0 mi South 6.9 mph - N/A   Scattered Clouds
4:54 PM 82.9 °F 82.1 °F 55.9 °F 39% 29.99 in 10.0 mi Variable 5.8 mph - N/A   Clear
5:54 PM 79.0 °F - 60.1 °F 52% 29.99 in 10.0 mi Calm Calm - N/A   Clear
6:54 PM 77.0 °F - 61.0 °F 58% 29.99 in 10.0 mi Calm Calm - N/A   Clear
7:54 PM 72.0 °F - 62.1 °F 71% 30.00 in 10.0 mi Calm Calm - N/A   Clear
8:54 PM 66.9 °F - 61.0 °F 81% 30.01 in 10.0 mi SSE 3.5 mph - N/A   Clear
9:54 PM 64.9 °F - 61.0 °F 87% 30.02 in 10.0 mi Calm Calm - N/A   Clear
10:54 PM 63.0 °F - 60.1 °F 90% 30.02 in 10.0 mi Calm Calm - N/A   Clear
11:54 PM 61.0 °F - 59.0 °F 93% 30.02 in 10.0 mi Calm Calm - N/A   Clear